Zurück zum Katalog

QIANFAN-227

AktivKommunikationPO
NORAD 69856·PAYLOAD·🇨🇳 China

Gestartet Jul 5, 2026 von Wenchang Space Launch Site

Loading…

Nächste Überflüge (nächste 24 Stunden)

TLE

AktuellSource: Space-Track

Epoche: Sep 14, 2026, 21:03 UTC

1 69856U 26155J   26257.87755751 -.01843787  00000-0 -31393+1 0  9999
2 69856  89.0073  54.2926 0038545  27.0925 333.2226 13.49074381  9966

Verfolge QIANFAN-227 in Echtzeit mit AllMySat

Download on the App Store